This is the latest recevied weather packets stored in our database for station/object K6CQU-13. If no packets are shown the sender has not sent any weather packets the latest 10 day(s).
| Time | Temp. | Humidity | Pressure | Rain* | Wind** | Luminosity | Snow |
|---|---|---|---|---|---|---|---|
| 1787940617 | 23.89° C | 51% | 1015 hPa | 0 mm | - | 142 W/m² | - |
| 1787940317 | 23.89° C | 51% | 1015 hPa | 0 mm | - | 131 W/m² | - |
| 1787940017 | 23.33° C | 51% | 1014.7 hPa | 0 mm | - | 158 W/m² | - |
| 1787939717 | 23.33° C | 51% | 1014.7 hPa | 0 mm | - | 139 W/m² | - |
| 1787939417 | 23.33° C | 56% | 1014.8 hPa | 0 mm | - | 118 W/m² | - |
| 1787939117 | 23.33° C | 57% | 1014.8 hPa | 0 mm | - | 122 W/m² | - |
| 1787938817 | 23.33° C | 59% | 1014.8 hPa | 0 mm | - | 120 W/m² | - |
| 1787938517 | 23.33° C | 58% | 1014.7 hPa | 0 mm | - | 149 W/m² | - |
| 1787938217 | 23.33° C | 57% | 1014.7 hPa | 0 mm | - | 157 W/m² | - |
| 1787937917 | 23.33° C | 56% | 1014.7 hPa | 0 mm | - | 186 W/m² | - |
| 1787937617 | 23.89° C | 57% | 1014.6 hPa | 0 mm | - | 211 W/m² | - |
| 1787937317 | 23.89° C | 58% | 1014.6 hPa | 0 mm | - | 222 W/m² | - |
| 1787937017 | 23.89° C | 59% | 1014.6 hPa | 0 mm | - | 233 W/m² | - |
| 1787936717 | 23.89° C | 60% | 1014.6 hPa | 0 mm | - | 211 W/m² | - |
| 1787936417 | 23.89° C | 60% | 1014.5 hPa | 0 mm | - | 196 W/m² | - |
| 1787936117 | 23.89° C | 62% | 1014.2 hPa | 0 mm | - | 174 W/m² | - |
| 1787935817 | 23.33° C | 62% | 1014.1 hPa | 0 mm | - | 156 W/m² | - |
| 1787935517 | 23.33° C | 63% | 1014 hPa | 0 mm | - | 155 W/m² | - |
| 1787935217 | 22.78° C | 63% | 1014 hPa | 0 mm | - | 163 W/m² | - |
| 1787934917 | 22.78° C | 62% | 1014 hPa | 0 mm | - | 167 W/m² | - |
| 1787934617 | 22.22° C | 66% | 1014 hPa | 0 mm | - | 151 W/m² | - |
| 1787934317 | 22.22° C | 68% | 1014 hPa | 0 mm | - | 141 W/m² | - |
| 1787934017 | 22.22° C | 68% | 1013.9 hPa | 0 mm | - | 136 W/m² | - |
| 1787933717 | 21.67° C | 68% | 1013.9 hPa | 0 mm | - | 128 W/m² | - |
| 1787933417 | 21.67° C | 67% | 1013.9 hPa | 0 mm | - | 124 W/m² | - |
* Rain latest hour (hover to see other rain measurements)
** Current wind speed in m/s (hover to see current wind gust speed)